Location: La Chapelle-Bertrand
(46.6210°N, 0.1753°W)
Time: 02:45:05
(UTC+00:00)

Daily predictions for brighter satellites

Satellite Brightness Start Highest point End
(mag) Time Altitude Azimuth Time Altitude Azimuth Time Altitude Azimuth
Cosmos 1461 2.8 00:01:57 10° NW 00:06:08 86° NE 00:06:31 73° SE
Cosmos 1867 3.6 00:05:01 52° S 00:06:10 67° ESE 00:11:37 10° NE
Nadezhda 2 Rocket 4.4 00:01:04 10° NNW 00:07:14 74° W 00:09:13 45° SSW
Cosmos 2221 Rocket 3.5 00:06:47 66° SE 00:07:15 73° E 00:11:39 10° NNE
Cosmos 1674 Rocket 3.9 00:06:55 47° ESE 00:07:19 49° E 00:11:30 10° NNE
USA 306 4.4 00:11:52 24° E 00:11:52 24° E 00:14:06 10° ENE
Cosmos 1674 2.6 00:10:51 79° NE 00:10:51 79° NE 00:14:28 10° N
Cosmos 1238 Rocket 3.1 00:09:53 10° N 00:12:06 45° NNE 00:12:06 45° NNE
USA 307 4.5 00:15:20 23° E 00:15:20 23° E 00:17:30 10° ENE
ATLAS CENTAUR R/B 2.3 00:09:37 10° NW 00:13:59 40° WSW 00:13:59 40° WSW
SL-16 R/B 4.4 00:16:19 10° ESE 00:18:05 11° E 00:19:52 10° ENE
Cosmos 2322 Rocket 4.2 00:16:28 10° W 00:20:52 23° NW 00:25:17 10° N
Cosmos 1980 4.4 00:20:38 35° SE 00:21:54 40° ESE 00:27:08 10° NE
Cosmos 2333 Rocket 2.8 00:19:42 28° WSW 00:22:26 50° WNW 00:27:58 10° NNE
ATLAS 5 CENTAUR R/B 3.1 00:08:46 10° NW 00:22:35 89° NE 00:24:39 35° SE
Cosmos 468 4.5 00:17:33 10° NNW 00:22:49 79° ENE 00:24:28 45° SSE
Cosmos 1378 Rocket 3.5 00:22:19 61° SE 00:22:52 69° E 00:27:18 10° NNE
CZ-4C R/B 2.9 00:15:42 10° NW 00:22:59 78° SW 00:27:52 28° SSE
Cosmos 2322 3.9 00:20:48 37° SW 00:23:03 66° WNW 00:28:48 10° NNE
Cosmos 1844 Rocket 4.3 00:22:05 10° NW 00:25:56 19° W 00:26:33 19° WSW
USA 215 3.8 00:21:24 10° NE 00:27:48 58° NNW 00:34:12 10° WSW
NOSS 0 Rocket 4.1 00:29:22 42° S 00:31:21 61° ESE 00:37:30 10° NE
PSLV R/B 3.8 00:29:50 10° N 00:34:10 63° WNW 00:35:00 52° WSW
Meteor 2-10 Rocket 4.4 00:32:51 10° N 00:38:21 47° ENE 00:41:17 25° SE
ALOS 2 4.5 00:38:34 18° W 00:38:45 18° W 00:41:43 10° NW
Cosmos 2151 Rocket 3.8 00:36:11 10° NNW 00:40:27 51° W 00:40:53 49° WSW
Cosmos 1745 Rocket 3.9 00:35:59 10° N 00:42:14 82° W 00:44:35 41° S
Okean 2 4.1 00:42:13 37° W 00:42:42 39° WNW 00:46:34 10° N
Cosmos 839 Rocket 4.2 00:37:01 10° NW 00:43:23 84° NE 00:49:12 18° SE
ADEOS Rocket 3.7 00:42:18 30° WSW 00:43:38 34° W 00:48:58 10° NNW
USA 308 3.3 00:44:46 44° ESE 00:44:46 44° ESE 00:48:23 10° ENE
Okean 2 Rocket 3.7 00:40:30 10° NNW 00:44:45 41° W 00:45:14 40° WSW
Cosmos 2219 Rocket 3.0 00:42:56 25° WSW 00:45:44 43° NW 00:51:05 10° NNE
Meteor 2-12 Rocket 4.4 00:43:43 10° N 00:49:50 84° E 00:52:26 37° SSE
Meteor 1-16 Rocket 4.3 00:44:08 10° NNW 00:50:03 69° W 00:52:02 42° SSW
GP-B 3.4 00:52:31 10° N 00:56:56 60° E 00:58:07 43° SE
Lacrosse 5 3.1 00:58:31 26° SE 00:59:02 27° SE 01:03:17 10° ENE
CZ-2D R/B 3.4 00:55:13 10° NNE 01:00:01 32° E 01:02:28 22° SE
Cosmos 1300 2.5 00:57:15 10° N 01:01:04 83° E 01:01:27 70° SSE
SL-14 R/B 3.1 01:02:27 65° WSW 01:02:49 71° W 01:06:41 10° N
ASTEX 1 4.4 00:59:14 10° N 01:03:40 35° WNW 01:05:07 29° WSW
USA 267 3.7 01:02:14 35° SSW 01:03:45 40° SW 01:09:53 10° WNW
Cosmos 883 Rocket 4.5 01:04:14 37° S 01:06:57 89° W 01:13:21 10° N
Cosmos 371 Rocket 3.3 01:06:03 46° SW 01:07:27 74° WNW 01:12:20 10° NNE
USA 305 2.7 01:07:08 62° SW 01:07:45 80° SE 01:11:57 10° ENE
Cosmos 2150 Rocket 4.0 01:06:08 42° SW 01:07:52 72° WNW 01:13:02 10° NNE
NOSS 2-2 (C) 4.4 01:03:39 10° NW 01:08:47 64° SW 01:12:46 26° SSE
USA 229 DEB 4.0 01:03:02 10° NW 01:10:19 62° WSW 01:15:06 25° SSE
USA 229 4.0 01:03:08 10° NW 01:10:25 62° WSW 01:15:15 25° SSE
Cosmos 2237 Rocket 2.1 01:11:28 39° SSW 01:13:41 89° WNW 01:19:26 10° NNE
COSMOS 2428 3.8 01:12:17 21° WSW 01:15:29 37° NW 01:20:46 10° NNE
Cosmos 405 Rocket 3.9 01:18:03 27° W 01:18:31 28° WNW 01:21:51 10° N
Cosmos 304 Rocket 3.7 01:17:17 45° SSW 01:18:46 89° ESE 01:23:37 10° NNE
Cosmos 1437 Rocket 3.7 01:16:06 10° NNW 01:19:16 31° W 01:19:16 31° W
SL-16 R/B 3.2 01:14:42 12° SE 01:20:21 55° ENE 01:26:26 10° N
Lacrosse 5 rocket 2.9 01:21:54 20° SE 01:21:57 20° SE 01:24:54 10° ENE
Cosmos 1125 Rocket 3.9 01:20:00 33° WSW 01:22:03 53° WNW 01:27:10 10° NNE
Okean 1 Rocket 3.8 01:19:23 10° NNW 01:23:26 36° W 01:24:05 34° WSW
SME Rocket 3.1 01:24:34 42° SSE 01:25:56 85° WSW 01:31:01 10° NNW
Cosmos 1953 3.3 01:22:42 10° NNW 01:26:14 30° W 01:26:26 30° W
Resurs 1-4 Rocket 2.4 01:24:09 10° NNE 01:29:22 58° E 01:31:56 29° SSE
Cosmos 2297 4.5 01:27:19 10° NNW 01:32:57 52° ENE 01:38:33 10° SE
Cosmos 1943 Rocket 2.6 01:27:22 10° NNW 01:33:02 65° ENE 01:38:40 10° SE
MOZ.5/SAFIR/RUBIN 5/SL-8 3.9 01:33:59 39° SSW 01:35:26 56° W 01:40:08 10° NNW
Cosmos 1709 Rocket 4.2 01:30:43 10° NNW 01:36:37 51° W 01:39:18 31° SSW
Cosmos 2315 Rocket 4.2 01:35:34 31° SSW 01:38:42 62° WNW 01:45:03 10° N
Cosmos 2184 Rocket 4.2 01:37:19 10° N 01:43:35 69° E 01:48:45 15° SSE
EO 1 Delta rocket 4.4 01:39:28 10° N 01:43:57 49° WNW 01:46:02 30° SW
Cosmos 2278 Rocket 3.0 01:39:00 10° NW 01:44:00 33° WSW 01:45:23 29° SW
ADEOS II 3.0 01:40:14 10° NNE 01:45:14 43° E 01:48:39 19° SSE
IDEFIX/ARIANE 42P 3.7 01:41:14 10° NNE 01:46:06 36° E 01:49:52 16° SSE
USA 306 3.2 01:47:34 25° W 01:49:49 61° NNW 01:53:58 10° NE
Cosmos 2084 Rocket 3.0 01:49:15 45° SSW 01:50:20 84° SE 01:54:08 10° NE
USA 307 3.1 01:51:04 26° WSW 01:53:17 64° NNW 01:57:27 10° NE
Thor Agena Rocket 4.0 01:48:25 10° N 01:53:31 51° WNW 01:56:09 27° SW
ERBS 2.7 01:54:54 36° W 01:55:43 48° NW 01:58:43 10° NE
NPP 3.7 01:51:59 10° NNE 01:57:25 82° ESE 02:00:35 26° S
Cosmos 2369 Rocket 3.4 01:52:52 10° NNW 01:58:12 42° NE 02:03:28 10° SE
SL-16 R/B 2.2 01:58:00 27° SSW 02:01:11 76° ESE 02:06:52 10° NNE
Cosmos 1455 Rocket 3.7 01:57:36 10° NNW 02:01:47 40° W 02:03:15 30° SW
Cosmos 614 Rocket 4.4 01:56:54 10° NNW 02:02:05 65° ENE 02:07:15 10° SSE
CZ-4 R/B 3.8 01:57:43 10° N 02:02:22 74° WNW 02:04:41 29° SSW
EO 1 Del DPAF 4.1 02:00:06 10° NNE 02:03:25 38° E 02:05:17 21° SSE
Meteor 1-28 Rocket 3.6 02:03:36 17° SSE 02:06:23 62° ENE 02:10:05 10° N
COSMOS 2455 3.4 02:04:48 21° S 02:08:40 50° ESE 02:14:28 10° NE
Cosmos 1536 Rocket 3.8 02:08:02 22° S 02:10:46 68° E 02:15:08 10° NNE
CZ-4C R/B 4.3 02:05:35 10° WNW 02:10:57 21° WSW 02:12:59 19° SW
Cosmos 1975 Rocket 4.2 02:16:47 22° WSW 02:18:41 30° WNW 02:22:39 10° N
Nadezhda 1 Rocket 4.1 02:15:05 17° S 02:20:12 81° E 02:26:31 10° N
Meteor 1-24 Rocket 4.0 02:17:04 23° SW 02:20:24 55° WNW 02:25:46 10° N
UNK 3.8 02:19:09 22° S 02:22:02 57° W 02:26:36 10° NNW
MSX 4.3 02:17:35 10° NNE 02:23:18 60° E 02:28:25 13° S
USA 308 3.7 02:20:31 13° W 02:24:01 46° NNW 02:28:04 10° NE
Cosmos 1455 2.4 02:22:01 10° NNW 02:25:38 50° W 02:27:22 26° SSW
Cosmos 1025 Rocket 4.1 02:23:55 21° WSW 02:25:52 31° WNW 02:29:43 10° N
MOS 1 Rocket 3.1 02:23:22 21° S 02:26:06 59° W 02:30:22 10° NNW
YAOGAN 11 4.3 02:23:44 21° S 02:26:33 54° W 02:30:59 10° NNW
Cosmos 1271 Rocket 2.6 02:25:38 10° NNW 02:29:28 87° W 02:32:45 14° S
Cosmos 1606 Rocket 4.4 02:29:16 10° N 02:33:35 49° ENE 02:37:49 10° SSE
CZ-2D R/B 2.9 02:35:08 10° N 02:40:07 39° WNW 02:43:47 17° SW
Lacrosse 5 2.1 02:37:41 17° WSW 02:41:40 70° NW 02:46:46 10° NE
Helios 1B rocket 3.9 02:40:40 10° NNE 02:44:21 32° E 02:48:01 10° SSE
Cosmos 2341 Rocket 4.3 02:40:01 10° N 02:46:25 72° E 02:52:47 10° SSE
USA 305 4.2 02:43:46 10° W 02:47:38 35° NNW 02:51:31 10° NE
Cosmos 2154 Rocket 4.2 02:43:38 10° NNW 02:49:49 55° W 02:55:55 10° SSW
BREEZE-M DEB (TANK) 3.8 02:47:13 16° SSW 02:50:21 30° SSE 02:52:46 10° E
Meteor 2-1 Rocket 4.5 02:45:09 10° N 02:50:57 76° ENE 02:56:35 10° SSE
Cosmos 407 Rocket 4.1 02:46:43 10° NNW 02:52:02 61° ENE 02:57:14 10° SE
SL-8 Rocket 4.4 02:46:49 10° N 02:53:08 67° ENE 02:59:25 10° SSE
Cosmos 1943 3.7 02:50:42 10° S 02:56:14 57° ESE 03:01:48 10° NNE
Cosmos 1328 4.3 02:52:33 10° S 02:56:26 59° E 03:00:22 10° NNE
Helios 1A 3.5 02:53:26 14° SSW 02:56:48 40° W 03:00:48 10° NNW
Cosmos 2237 Rocket 4.1 02:54:31 10° W 02:58:35 20° NW 03:02:40 10° N
Genesis I 4.1 02:55:19 10° NNW 02:59:21 55° NE 03:03:16 10° SE
Lacrosse 5 rocket 1.5 02:57:25 15° WSW 03:00:35 64° NW 03:04:41 10° NE
Cosmos 1140 Rocket 3.7 02:57:43 10° NNW 03:03:00 78° ENE 03:08:15 10° SSE
SL-16 R/B 3.5 02:59:47 13° SSW 03:04:16 28° W 03:09:34 10° NW
Lacrosse 4 Rocket 4.0 03:06:26 10° SE 03:08:39 14° ESE 03:10:51 10° ENE
Resurs 1-4 Rocket 3.6 03:04:44 10° N 03:08:47 23° WNW 03:12:50 10° WSW
Cosmos 1892 Rocket 3.9 03:05:48 10° S 03:10:12 68° E 03:14:41 10° NNE
Cosmos 1726 Rocket 3.5 03:08:46 10° N 03:13:13 83° W 03:17:35 10° S
Cosmos 1703 4.0 03:11:07 13° SW 03:14:18 37° WNW 03:18:00 10° N
Cosmos 1943 Rocket 3.4 03:12:04 10° NW 03:16:16 22° W 03:20:27 10° SSW
Cosmos 2263 4.2 03:11:40 10° NNW 03:17:20 71° WSW 03:23:01 10° SSE
FENGYUN 3A 4.2 03:12:11 10° NNE 03:17:31 59° E 03:22:49 10° S
NOSS 3-3 (A) 4.0 03:13:34 10° SSW 03:19:07 79° SE 03:25:38 10° NE
NOSS 3-3 (C) 4.0 03:13:40 10° SSW 03:19:13 78° SE 03:25:43 10° NE
Cosmos 1023 Rocket 4.5 03:16:01 10° NNW 03:21:18 72° WSW 03:26:31 10° SSE
ADEOS II 3.2 03:20:15 10° N 03:24:45 29° WNW 03:29:14 10° WSW
Cosmos 1825 4.3 03:22:00 10° SSE 03:25:05 25° E 03:28:12 10° NNE
IDEFIX/ARIANE 42P 3.5 03:20:54 10° N 03:25:37 34° WNW 03:30:19 10° SW
SL-24 DEB 4.3 03:21:54 10° S 03:26:39 84° W 03:31:23 10° N
ARIANE 5 R/B 3.4 03:22:50 10° NNE 03:27:45 48° E 03:32:35 10° S
CBERS-1 4.1 03:25:36 10° N 03:30:43 73° WNW 03:35:48 10° SSW
Cosmos 2218 Rocket 4.0 03:28:45 10° NNW 03:34:59 74° W 03:41:15 10° S
DNEPR-1 R/B 3.6 03:33:02 10° SW 03:37:15 89° ESE 03:41:59 10° NE
MOS 1-B Rocket 3.9 03:32:19 10° S 03:37:50 59° W 03:43:32 10° NNW
Cosmos 2228 4.3 03:36:12 10° NW 03:39:38 23° W 03:43:02 10° SW
Cosmos 2056 Rocket 3.8 03:35:06 10° SSW 03:40:15 73° ESE 03:45:31 10° NNE
DEBRIS 3.3 03:32:41 10° WNW 03:41:36 83° SSW 03:44:32 10° ESE
Cosmos 2369 Rocket 2.8 03:37:07 10° NW 03:42:06 34° WSW 03:47:02 10° SSW
IRS-1D 4.3 03:37:22 10° N 03:42:20 40° WNW 03:47:13 10° SW
